Date String (YYYY-MM-DD hh:mm:ss) UTC,Instrument flags,absolute air pressure of the measurement (hPa),sample flow rate (lpm),inlet stack bypass flow (lpm),air temperature of the measurement (°C),ambient temperature measured by the external sensor (°C),aerosol sample conditioner tube jacket temperature (°C),OPC LED temperature (°C),internal box temperature (°C),relative humidity of the measurement (%),span deviation,mass concentration of particles derived from Lorenz-Mie calculation of OPC scattering (μg/m³),mass concentration of particles derived from Lorenz-Mie calculation of OPC scattering (μg/m³),mass concentration of particles derived from Lorenz-Mie calculation of OPC scattering (μg/m³)
DateTimeUTC,F1_M11,P_M11,Q1_M11,Q2_M11,T1_M11,T2_M11,T3_M11,T4_M11,T5_M11,U1_M11,ZSPAN_M11,X0_M11,X2_M11,X1_M11
2023-08-08 08:00:00,SystemResetWarning,0833.7,5.00,000.00,029.7,028.4,000.0,038.3,031.2,24.9,0000.4,0010.79,0005.46,0004.61
2023-08-08 08:01:00,SystemResetWarning,0833.7,5.00,000.00,029.7,028.4,000.0,038.3,031.3,24.8,0000.2,0010.89,0005.46,0004.60
2023-08-08 08:02:00,SystemResetWarning,0833.7,4.98,000.00,029.7,028.4,000.0,038.3,031.3,25.2,0000.2,0011.07,0005.46,0004.59
2023-08-08 08:03:00,SystemResetWarning,0833.6,5.00,000.00,029.7,028.4,000.0,038.3,031.3,26.0,0000.0,0011.45,0005.41,0004.57
2023-08-08 08:04:00,SystemResetWarning,0833.6,5.01,000.00,029.7,028.4,000.0,038.3,031.3,27.1,0000.0,0011.41,0005.37,0004.56
2023-08-08 08:05:00,SystemResetWarning,0833.7,5.01,000.00,029.7,028.4,000.0,038.3,031.3,27.8,0000.0,0011.72,0005.35,0004.54
2023-08-08 08:06:00,SystemResetWarning,0833.6,5.00,000.00,029.7,028.4,000.0,038.3,031.3,28.2,0000.0,0011.82,0005.31,0004.52
2023-08-08 08:07:00,SystemResetWarning,0833.6,4.99,000.00,029.7,028.4,000.0,038.3,031.3,28.4,0000.1,0011.86,0005.31,0004.50
2023-08-08 08:08:00,SystemResetWarning,0833.6,4.99,000.00,029.8,028.4,000.0,038.4,031.3,28.3,0000.0,0011.87,0005.30,0004.48
2023-08-08 08:09:00,SystemResetWarning,0833.6,5.01,000.00,029.8,028.4,000.0,038.4,031.3,28.3,0000.0,0011.46,0005.30,0004.45
2023-08-08 08:10:00,SystemResetWarning,0833.7,5.02,000.00,029.8,028.4,000.0,038.4,031.3,28.3,0000.0,0011.56,0005.30,0004.44
2023-08-08 08:11:00,SystemResetWarning,0833.7,5.00,000.00,029.8,028.4,000.0,038.4,031.3,28.2,0000.0,0011.47,0005.26,0004.42
2023-08-08 08:12:00,SystemResetWarning,0833.6,4.99,000.00,029.8,028.4,000.0,038.4,031.3,28.2,0000.0,0011.43,0005.22,0004.40
2023-08-08 08:13:00,SystemResetWarning,0833.6,5.00,000.00,029.8,028.4,000.0,038.4,031.3,28.0,0000.0,0011.36,0005.17,0004.40
2023-08-08 08:14:00,SystemResetWarning,0833.6,5.00,000.00,029.8,028.4,000.0,038.4,031.3,27.9,0000.0,0010.97,0005.20,0004.43
2023-08-08 08:15:00,SystemResetWarning,0833.5,5.00,000.00,029.8,028.4,000.0,038.4,031.3,27.7,-000.0,0010.58,0005.22,0004.46
2023-08-08 08:16:00,SystemResetWarning,0833.5,5.01,000.00,029.8,028.4,000.0,038.4,031.4,27.2,-000.3,0009.98,0005.25,0004.50
2023-08-08 08:17:00,SystemResetWarning,0833.4,5.01,000.00,029.8,028.4,000.0,038.4,031.4,26.4,0000.0,0010.19,0005.30,0004.55
2023-08-08 08:18:00,SystemResetWarning,0833.5,5.00,000.00,029.8,028.4,000.0,038.5,031.4,25.5,-000.1,0010.26,0005.36,0004.62
2023-08-08 08:19:00,SystemResetWarning,0833.5,5.00,000.00,029.8,028.5,000.0,038.5,031.4,25.3,-000.1,0010.93,0005.41,0004.69
2023-08-08 08:20:00,SystemResetWarning,0833.5,5.00,000.00,029.8,028.5,000.0,038.5,031.4,24.5,-000.4,0010.98,0005.41,0004.73
2023-08-08 08:21:00,SystemResetWarning,0833.5,5.00,000.00,029.9,028.5,000.0,038.5,031.4,24.9,0000.2,0011.67,0005.46,0004.78
2023-08-08 08:22:00,SystemResetWarning,0833.5,4.99,000.00,029.9,028.5,000.0,038.5,031.4,25.0,0001.1,0011.65,0005.48,0004.81
2023-08-08 08:23:00,SystemResetWarning,0833.5,5.02,000.00,029.9,028.5,000.0,038.5,031.4,25.7,0001.5,0011.70,0005.51,0004.83
2023-08-08 08:24:00,SystemResetWarning,0833.6,5.01,000.00,029.9,028.5,000.0,038.5,031.4,26.0,0001.9,0011.52,0005.56,0004.84
2023-08-08 08:25:00,SystemResetWarning,0833.6,4.99,000.00,029.9,028.5,000.0,038.5,031.4,25.7,0001.6,0011.29,0005.58,0004.83
2023-08-08 08:26:00,SystemResetWarning,0833.6,5.00,000.00,029.9,028.6,000.0,038.5,031.5,25.7,0001.9,0011.35,0005.57,0004.83
2023-08-08 08:27:00,SystemResetWarning,0833.5,5.00,000.00,029.9,028.6,000.0,038.5,031.4,26.0,0001.6,0011.81,0005.61,0004.85
2023-08-08 08:28:00,SystemResetWarning,0833.5,5.01,000.00,029.9,028.5,000.0,038.6,031.4,26.6,0001.6,0011.68,0005.65,0004.88
2023-08-08 08:29:00,SystemResetWarning,0833.5,5.01,000.00,029.9,028.6,000.0,038.6,031.4,27.0,0001.8,0011.83,0005.73,0004.89
2023-08-08 08:30:00,SystemResetWarning,0833.5,5.00,000.00,029.9,028.6,000.0,038.6,031.5,27.3,0001.8,0011.62,0005.77,0004.92
2023-08-08 08:31:00,SystemResetWarning,0833.4,5.00,000.00,029.9,028.6,000.0,038.6,031.5,27.4,0002.0,0012.49,0005.84,0004.95
2023-08-08 08:32:00,SystemResetWarning,0833.4,5.00,000.00,029.9,028.6,000.0,038.6,031.5,27.5,0001.7,0011.94,0005.86,0004.99
2023-08-08 08:33:00,SystemResetWarning,0833.4,5.00,000.00,030.0,028.6,000.0,038.6,031.5,27.4,0001.1,0012.35,0005.94,0005.06
2023-08-08 08:34:00,SystemResetWarning,0833.4,4.99,000.00,030.0,028.6,000.0,038.6,031.5,27.1,0000.8,0013.38,0005.98,0005.12
2023-08-08 08:35:00,SystemResetWarning,0833.4,5.00,000.00,030.0,028.6,000.0,038.6,031.5,27.3,0000.9,0014.06,0006.05,0005.19
2023-08-08 08:36:00,SystemResetWarning,0833.4,5.01,000.00,030.0,028.6,000.0,038.6,031.5,27.4,0001.4,0014.22,0006.10,0005.24
2023-08-08 08:37:00,SystemResetWarning,0833.4,5.01,000.00,030.0,028.6,000.0,038.6,031.5,27.3,0001.4,0014.47,0006.17,0005.29
2023-08-08 08:38:00,SystemResetWarning,0833.4,5.00,000.00,030.0,028.6,000.0,038.6,031.5,26.9,0001.6,0014.33,0006.22,0005.32
2023-08-08 08:39:00,SystemResetWarning,0833.4,5.00,000.00,030.0,028.6,000.0,038.7,031.5,26.9,0001.1,0014.18,0006.19,0005.29
2023-08-08 08:40:00,SystemResetWarning,0833.4,5.00,000.00,030.0,028.6,000.0,038.7,031.6,26.3,0000.4,0014.02,0006.10,0005.26
2023-08-08 08:41:00,SystemResetWarning,0833.4,4.99,000.00,030.0,028.7,000.0,038.7,031.6,26.0,-000.1,0013.51,0006.04,0005.20
2023-08-08 08:42:00,SystemResetWarning,0833.4,5.00,000.00,030.0,028.7,000.0,038.7,031.6,25.6,-000.6,0012.60,0005.99,0005.17
2023-08-08 08:43:00,SystemResetWarning,0833.4,5.00,000.00,030.0,028.3,000.0,038.7,031.5,25.2,-000.7,0012.72,0005.95,0005.11
2023-08-08 08:44:00,SystemResetWarning,0833.3,5.00,000.00,030.0,026.3,000.0,038.5,031.3,25.6,-000.2,0012.87,0005.88,0005.05
2023-08-08 08:45:00,SystemResetWarning,0833.2,5.00,000.00,029.9,025.2,000.0,038.4,031.1,25.1,-000.2,0011.98,0005.87,0004.99
2023-08-08 08:46:00,SystemResetWarning,0833.2,5.01,000.00,029.8,025.2,000.0,038.3,030.7,24.9,-000.6,0011.36,0005.82,0004.96
2023-08-08 08:47:00,SystemResetWarning,0833.3,5.01,000.00,029.6,025.5,000.0,038.3,030.7,23.9,-001.2,0011.87,0005.79,0004.93
2023-08-08 08:48:00,SystemResetWarning,0833.2,4.99,000.00,029.6,026.0,000.0,038.3,030.8,23.5,-001.7,0012.03,0005.79,0004.89
2023-08-08 08:49:00,SystemResetWarning,0833.2,4.99,000.00,029.5,026.4,000.0,038.3,030.9,23.6,-001.7,0011.68,0005.69,0004.85
2023-08-08 08:50:00,SystemResetWarning,0833.2,5.01,000.00,029.5,026.7,000.0,038.3,030.9,23.7,-001.7,0011.62,0005.67,0004.83
2023-08-08 08:51:00,SystemResetWarning,0833.2,5.01,000.00,029.5,027.0,000.0,038.3,030.9,23.6,-001.5,0011.59,0005.69,0004.86
2023-08-08 08:52:00,SystemResetWarning,0833.2,5.00,000.00,029.5,027.2,000.0,038.3,031.0,23.7,-001.1,0011.61,0005.72,0004.90
2023-08-08 08:53:00,SystemResetWarning,0833.2,4.99,000.00,029.5,027.4,000.0,038.3,031.0,23.9,-000.4,0011.68,0005.78,0004.94
2023-08-08 08:54:00,SystemResetWarning,0833.2,5.00,000.00,029.5,027.6,000.0,038.3,031.0,23.6,0000.0,0012.96,0005.84,0004.99
2023-08-08 08:55:00,SystemResetWarning,0833.2,5.00,000.00,029.5,027.7,000.0,038.3,031.0,23.2,-000.0,0013.09,0005.91,0005.04
2023-08-08 08:56:00,SystemResetWarning,0833.2,5.00,000.00,029.5,027.8,000.0,038.3,031.1,23.0,-000.3,0013.58,0005.95,0005.10
2023-08-08 08:57:00,SystemResetWarning,0833.2,5.01,000.00,029.5,027.9,000.0,038.2,031.1,23.2,-000.1,0014.25,0005.98,0005.13
2023-08-08 08:58:00,SystemResetWarning,0833.2,5.00,000.00,029.5,027.9,000.0,038.2,031.1,23.1,0000.4,0013.72,0006.05,0005.16
2023-08-08 08:59:00,SystemResetWarning,0833.1,5.00,000.00,029.5,028.0,000.0,038.2,031.1,23.1,0000.2,0013.35,0006.08,0005.21
